RON824 YBBN-YBCS

Flight info

Callsign RON824
Flight time 2h 7m
Altitude 40000
Route M079F400 DCT BN Q67 CS DCT
Aircraft B737/M-SDFGHIRWYZ/LB1

Departure

Time 2026-04-27 08:06
Airport Brisbane International Airport (YBBN)

Arrival

Time 2026-04-27 10:14
Airport Cairns International Airport (YBCS)
Time Latitude Longitude Altitude Speed Heading
2026-04-27 07:26 -27.38692 153.12159 23 ft 0 kts 14°
2026-04-27 07:53 -27.38693 153.12159 -7 ft 2 kts 14°
2026-04-27 07:54 -27.38717 153.12152 22 ft 2 kts 14°
2026-04-27 07:54 -27.38725 153.12150 20 ft 0 kts 12°
2026-04-27 07:57 -27.38724 153.12152 21 ft 0 kts 35°
2026-04-27 07:57 -27.38725 153.12157 24 ft 1 kts 86°
2026-04-27 07:58 -27.38730 153.12159 20 ft 1 kts 160°
2026-04-27 07:58 -27.38762 153.12169 20 ft 8 kts 154°
2026-04-27 07:58 -27.38781 153.12210 20 ft 7 kts 101°
2026-04-27 07:58 -27.38794 153.12271 20 ft 10 kts 84°
2026-04-27 07:59 -27.38737 153.12340 20 ft 15 kts 24°
2026-04-27 07:59 -27.38494 153.12478 20 ft 18 kts 26°
2026-04-27 07:59 -27.38477 153.12487 20 ft 2 kts 27°
2026-04-27 08:00 -27.38441 153.12508 20 ft 10 kts 27°
2026-04-27 08:00 -27.38353 153.12559 21 ft 18 kts 27°
2026-04-27 08:00 -27.38216 153.12637 22 ft 26 kts 27°
2026-04-27 08:00 -27.38057 153.12727 22 ft 19 kts 26°
2026-04-27 08:01 -27.37936 153.12738 21 ft 19 kts 304°
2026-04-27 08:01 -27.37876 153.12604 20 ft 19 kts 296°
2026-04-27 08:01 -27.37810 153.12460 20 ft 23 kts 297°
2026-04-27 08:01 -27.37731 153.12287 20 ft 27 kts 297°
2026-04-27 08:02 -27.37644 153.12097 20 ft 26 kts 297°
2026-04-27 08:02 -27.37564 153.11919 20 ft 25 kts 297°
2026-04-27 08:02 -27.37489 153.11755 20 ft 23 kts 297°
2026-04-27 08:02 -27.37422 153.11608 20 ft 15 kts 297°
2026-04-27 08:03 -27.37346 153.11557 20 ft 15 kts 23°
2026-04-27 08:03 -27.37240 153.11617 20 ft 19 kts 26°
2026-04-27 08:03 -27.37100 153.11691 20 ft 25 kts 27°
2026-04-27 08:03 -27.36935 153.11789 20 ft 29 kts 27°
2026-04-27 08:04 -27.36773 153.11884 22 ft 23 kts 27°
2026-04-27 08:04 -27.36655 153.11925 20 ft 13 kts 334°
2026-04-27 08:04 -27.36609 153.11840 20 ft 13 kts 297°
2026-04-27 08:04 -27.36591 153.11804 20 ft 0 kts 297°
2026-04-27 08:05 -27.36590 153.11800 20 ft 2 kts 297°
2026-04-27 08:05 -27.36573 153.11764 19 ft 9 kts 296°
2026-04-27 08:06 -27.36561 153.11678 19 ft 13 kts 229°
2026-04-27 08:06 -27.36781 153.11554 20 ft 77 kts 206°
2026-04-27 08:06 -27.37482 153.11158 176 ft 134 kts 204°
2026-04-27 08:06 -27.38349 153.10702 1003 ft 141 kts 202°
2026-04-27 08:07 -27.39250 153.10208 1876 ft 151 kts 199°
2026-04-27 08:07 -27.40274 153.09646 2559 ft 182 kts 198°
2026-04-27 08:07 -27.41429 153.08968 3555 ft 191 kts 202°
2026-04-27 08:07 -27.42648 153.08243 4405 ft 211 kts 202°
2026-04-27 08:08 -27.44078 153.07413 4837 ft 250 kts 203°
2026-04-27 08:08 -27.45654 153.06501 5996 ft 255 kts 203°
2026-04-27 08:08 -27.47247 153.05570 7228 ft 262 kts 207°
2026-04-27 08:08 -27.48602 153.04149 8375 ft 275 kts 234°
2026-04-27 08:09 -27.49278 153.02108 9591 ft 284 kts 261°
2026-04-27 08:09 -27.49181 152.99872 10719 ft 290 kts 280°
2026-04-27 08:09 -27.48743 152.97635 11800 ft 295 kts 283°
2026-04-27 08:09 -27.48269 152.95370 12934 ft 299 kts 283°
2026-04-27 08:10 -27.47686 152.93103 14018 ft 305 kts 296°
2026-04-27 08:10 -27.46371 152.91228 15008 ft 308 kts 323°
2026-04-27 08:10 -27.44475 152.90145 16121 ft 307 kts 347°
2026-04-27 08:10 -27.42384 152.90009 17192 ft 307 kts 13°
2026-04-27 08:11 -27.40368 152.90928 17940 ft 322 kts 37°
2026-04-27 08:11 -27.38765 152.92769 18184 ft 349 kts 56°
2026-04-27 08:11 -27.37059 152.94853 18470 ft 378 kts 35°
2026-04-27 08:11 -27.34590 152.95911 19255 ft 387 kts
2026-04-27 08:12 -27.31902 152.95711 20235 ft 393 kts 344°
2026-04-27 08:12 -27.29399 152.94461 21199 ft 395 kts 335°
2026-04-27 08:12 -27.26821 152.93348 22007 ft 400 kts 342°
2026-04-27 08:12 -27.24160 152.92362 22816 ft 405 kts 343°
2026-04-27 08:13 -27.21465 152.91373 23641 ft 410 kts 342°
2026-04-27 08:13 -27.18756 152.90373 24357 ft 413 kts 342°
2026-04-27 08:13 -27.16009 152.89355 25021 ft 418 kts 342°
2026-04-27 08:13 -27.13244 152.88325 25698 ft 421 kts 341°
2026-04-27 08:14 -27.10448 152.87279 26328 ft 425 kts 341°
2026-04-27 08:14 -27.07637 152.86227 27085 ft 425 kts 341°
2026-04-27 08:14 -27.04848 152.85181 27912 ft 421 kts 341°
2026-04-27 08:14 -27.02076 152.84142 28187 ft 416 kts 341°
2026-04-27 08:15 -26.96453 152.82037 28211 ft 439 kts 341°
2026-04-27 08:15 -26.93519 152.80939 28215 ft 451 kts 341°
2026-04-27 08:15 -26.90508 152.79814 28211 ft 460 kts 341°
2026-04-27 08:16 -26.84341 152.77510 28202 ft 472 kts 341°
2026-04-27 08:16 -26.78114 152.75187 28186 ft 470 kts 341°
2026-04-27 08:17 -26.71954 152.72892 28191 ft 469 kts 341°
2026-04-27 08:17 -26.65754 152.70591 28192 ft 470 kts 341°
2026-04-27 08:18 -26.59550 152.68290 28191 ft 470 kts 341°
2026-04-27 08:18 -26.53336 152.65978 28186 ft 471 kts 341°
2026-04-27 08:19 -26.47117 152.63665 28185 ft 471 kts 341°
2026-04-27 08:19 -26.40892 152.61357 28191 ft 470 kts 341°
2026-04-27 08:20 -26.34694 152.59064 28176 ft 468 kts 341°
2026-04-27 08:20 -26.28517 152.56781 28172 ft 467 kts 341°
2026-04-27 08:21 -26.22362 152.54508 28178 ft 465 kts 341°
2026-04-27 08:21 -26.16219 152.52243 28167 ft 465 kts 341°
2026-04-27 08:22 -26.10108 152.49991 28171 ft 466 kts 341°
2026-04-27 08:22 -26.03951 152.47725 28166 ft 466 kts 341°
2026-04-27 08:23 -25.97785 152.45459 28166 ft 467 kts 341°
2026-04-27 08:23 -25.91611 152.43192 28163 ft 467 kts 341°
2026-04-27 08:24 -25.85435 152.40926 28163 ft 467 kts 341°
2026-04-27 08:24 -25.79272 152.38674 28156 ft 465 kts 340°
2026-04-27 08:25 -25.73140 152.36442 28157 ft 462 kts 341°
2026-04-27 08:25 -25.67082 152.34222 28155 ft 460 kts 341°
2026-04-27 08:26 -25.61008 152.32004 28159 ft 459 kts 340°
2026-04-27 08:26 -25.54951 152.29757 28148 ft 459 kts 340°
2026-04-27 08:27 -25.48899 152.27544 28139 ft 457 kts 339°
2026-04-27 08:27 -25.42879 152.25363 28148 ft 455 kts 339°
2026-04-27 08:28 -25.36873 152.23183 28143 ft 453 kts 339°
2026-04-27 08:28 -25.31891 152.21385 28145 ft 453 kts 340°
2026-04-27 08:29 -25.25897 152.19207 28144 ft 453 kts 339°
2026-04-27 08:29 -25.19919 152.17025 28142 ft 451 kts 339°
2026-04-27 08:30 -25.13961 152.14885 28134 ft 449 kts 338°
2026-04-27 08:30 -25.08036 152.12745 28139 ft 447 kts 338°
2026-04-27 08:31 -25.02306 152.10180 28150 ft 442 kts 328°
2026-04-27 08:31 -24.97266 152.06324 28138 ft 441 kts 322°
2026-04-27 08:32 -24.92293 152.02366 28137 ft 441 kts 322°
2026-04-27 08:32 -24.87302 151.98419 28131 ft 442 kts 323°
2026-04-27 08:33 -24.82321 151.94524 28137 ft 442 kts 323°
2026-04-27 08:33 -24.77297 151.90612 28134 ft 442 kts 323°
2026-04-27 08:34 -24.72279 151.86689 28129 ft 443 kts 322°
2026-04-27 08:34 -24.67252 151.82763 28129 ft 443 kts 322°
2026-04-27 08:35 -24.62214 151.78846 28128 ft 444 kts 323°
2026-04-27 08:35 -24.57221 151.74971 28117 ft 433 kts 322°
2026-04-27 08:36 -24.52293 151.71136 28124 ft 434 kts 321°
2026-04-27 08:36 -24.47355 151.67301 28124 ft 435 kts 322°
2026-04-27 08:37 -24.42393 151.63477 28121 ft 436 kts 323°
2026-04-27 08:37 -24.37422 151.59630 28123 ft 437 kts 322°
2026-04-27 08:38 -24.32448 151.55781 28109 ft 438 kts 322°
2026-04-27 08:38 -24.27465 151.51928 28097 ft 437 kts 322°
2026-04-27 08:39 -24.22536 151.48122 28109 ft 435 kts 322°
2026-04-27 08:39 -24.17603 151.44316 28116 ft 433 kts 321°
2026-04-27 08:40 -24.12687 151.40526 28101 ft 431 kts 322°
2026-04-27 08:40 -24.07785 151.36750 28101 ft 430 kts 322°
2026-04-27 08:41 -24.02886 151.32982 28106 ft 429 kts 321°
2026-04-27 08:41 -23.97998 151.29224 28089 ft 430 kts 321°
2026-04-27 08:42 -23.93092 151.25457 28097 ft 429 kts 322°
2026-04-27 08:42 -23.88241 151.21734 28126 ft 427 kts 321°
2026-04-27 08:43 -23.83249 151.18208 28134 ft 428 kts 324°
2026-04-27 08:43 -23.78105 151.14937 28124 ft 428 kts 325°
2026-04-27 08:44 -23.72968 151.11674 28119 ft 427 kts 326°
2026-04-27 08:44 -23.67836 151.08413 28108 ft 427 kts 326°
2026-04-27 08:45 -23.62716 151.05144 28062 ft 427 kts 324°
2026-04-27 08:45 -23.57605 151.01865 28089 ft 426 kts 324°
2026-04-27 08:46 -23.52491 150.98586 28089 ft 427 kts 324°
2026-04-27 08:46 -23.47362 150.95306 28090 ft 427 kts 326°
2026-04-27 08:47 -23.42233 150.92033 28084 ft 428 kts 325°
2026-04-27 08:47 -23.37124 150.88772 28084 ft 428 kts 324°
2026-04-27 08:48 -23.31984 150.85492 28088 ft 428 kts 325°
2026-04-27 08:48 -23.26847 150.82219 28077 ft 427 kts 325°
2026-04-27 08:49 -23.21719 150.78944 28085 ft 427 kts 324°
2026-04-27 08:49 -23.16584 150.75682 28083 ft 427 kts 325°
2026-04-27 08:50 -23.11442 150.72425 28081 ft 428 kts 325°
2026-04-27 08:50 -23.06290 150.69155 28090 ft 429 kts 324°
2026-04-27 08:51 -23.01130 150.65882 28079 ft 430 kts 324°
2026-04-27 08:51 -22.95996 150.62631 28060 ft 430 kts 324°
2026-04-27 08:52 -22.90835 150.59361 28097 ft 430 kts 325°
2026-04-27 08:52 -22.85654 150.56082 28070 ft 432 kts 323°
2026-04-27 08:53 -22.80456 150.52796 28074 ft 432 kts 325°
2026-04-27 08:53 -22.75264 150.49522 28081 ft 431 kts 323°
2026-04-27 08:54 -22.70079 150.46255 28080 ft 431 kts 324°
2026-04-27 08:54 -22.64898 150.42988 28039 ft 431 kts 324°
2026-04-27 08:55 -22.59721 150.39727 28069 ft 431 kts 323°
2026-04-27 08:55 -22.54542 150.36468 28077 ft 431 kts 324°
2026-04-27 08:56 -22.49356 150.33211 28077 ft 431 kts 324°
2026-04-27 08:56 -22.44168 150.29952 28074 ft 431 kts 323°
2026-04-27 08:57 -22.36411 150.25086 28069 ft 432 kts 324°
2026-04-27 08:58 -22.31204 150.21821 28062 ft 431 kts 323°
2026-04-27 08:58 -22.26001 150.18560 28067 ft 432 kts 324°
2026-04-27 08:59 -22.20851 150.15219 28061 ft 433 kts 322°
2026-04-27 08:59 -22.15698 150.11831 28070 ft 434 kts 322°
2026-04-27 09:00 -22.10525 150.08444 28063 ft 435 kts 323°
2026-04-27 09:00 -22.05376 150.05083 28072 ft 436 kts 322°
2026-04-27 09:01 -22.00148 150.01676 28044 ft 436 kts 323°
2026-04-27 09:01 -21.94985 149.98316 28057 ft 437 kts 322°
2026-04-27 09:02 -21.89774 149.94925 28067 ft 438 kts 323°
2026-04-27 09:02 -21.84560 149.91535 28065 ft 438 kts 322°
2026-04-27 09:03 -21.79331 149.88138 28049 ft 439 kts 323°
2026-04-27 09:03 -21.74081 149.84732 28061 ft 441 kts 322°
2026-04-27 09:04 -21.68809 149.81316 28057 ft 442 kts 323°
2026-04-27 09:04 -21.63540 149.77903 28067 ft 442 kts 322°
2026-04-27 09:05 -21.58301 149.74514 28058 ft 442 kts 323°
2026-04-27 09:05 -21.53028 149.71107 28062 ft 442 kts 323°
2026-04-27 09:06 -21.47757 149.67702 28059 ft 442 kts 323°
2026-04-27 09:06 -21.42483 149.64297 28060 ft 442 kts 322°
2026-04-27 09:07 -21.37213 149.60899 28057 ft 441 kts 323°
2026-04-27 09:07 -21.31924 149.57489 28053 ft 446 kts 323°
2026-04-27 09:08 -21.26586 149.54050 28053 ft 447 kts 323°
2026-04-27 09:08 -21.21243 149.50616 28054 ft 447 kts 323°
2026-04-27 09:09 -21.15941 149.47210 28058 ft 447 kts 323°
2026-04-27 09:09 -21.10603 149.43782 28058 ft 447 kts 323°
2026-04-27 09:10 -21.05269 149.40359 28049 ft 447 kts 323°
2026-04-27 09:10 -20.99938 149.36941 28047 ft 447 kts 323°
2026-04-27 09:11 -20.94595 149.33519 28054 ft 447 kts 323°
2026-04-27 09:11 -20.89253 149.30102 28046 ft 448 kts 324°
2026-04-27 09:12 -20.83895 149.26677 28050 ft 448 kts 323°
2026-04-27 09:12 -20.78555 149.23249 28054 ft 448 kts 324°
2026-04-27 09:13 -20.73192 149.19826 28072 ft 452 kts 323°
2026-04-27 09:13 -20.71405 149.18684 28288 ft 453 kts 323°
2026-04-27 09:13 -20.67823 149.16404 28959 ft 450 kts 324°
2026-04-27 09:13 -20.65156 149.14710 29798 ft 443 kts 324°
2026-04-27 09:14 -20.62518 149.13027 30396 ft 441 kts 323°
2026-04-27 09:14 -20.59884 149.11352 30892 ft 441 kts 323°
2026-04-27 09:14 -20.58103 149.10221 31218 ft 441 kts 323°
2026-04-27 09:14 -20.55470 149.08546 31745 ft 440 kts 324°
2026-04-27 09:15 -20.52843 149.06877 32327 ft 438 kts 323°
2026-04-27 09:15 -20.50267 149.05239 32959 ft 435 kts 323°
2026-04-27 09:15 -20.47672 149.03589 33490 ft 435 kts 323°
2026-04-27 09:15 -20.45060 149.01928 33885 ft 437 kts 324°
2026-04-27 09:16 -20.42449 149.00260 34315 ft 437 kts 324°
2026-04-27 09:16 -20.39841 148.98600 34831 ft 434 kts 324°
2026-04-27 09:16 -20.37254 148.96962 35375 ft 431 kts 323°
2026-04-27 09:16 -20.34702 148.95300 35850 ft 427 kts 321°
2026-04-27 09:17 -20.32338 148.93411 36310 ft 424 kts 317°
2026-04-27 09:17 -20.30036 148.91448 36717 ft 423 kts 317°
2026-04-27 09:17 -20.27752 148.89472 37159 ft 421 kts 317°
2026-04-27 09:17 -20.25482 148.87510 37617 ft 420 kts 317°
2026-04-27 09:18 -20.23211 148.85559 38062 ft 418 kts 317°
2026-04-27 09:18 -20.20964 148.83648 38482 ft 418 kts 318°
2026-04-27 09:18 -20.18693 148.81725 38875 ft 416 kts 318°
2026-04-27 09:18 -20.16425 148.79805 39266 ft 414 kts 318°
2026-04-27 09:19 -20.14179 148.77910 39699 ft 410 kts 318°
2026-04-27 09:19 -20.11951 148.76031 40013 ft 409 kts 318°
2026-04-27 09:19 -20.09717 148.74147 40013 ft 411 kts 318°
2026-04-27 09:20 -20.05227 148.70360 40028 ft 412 kts 318°
2026-04-27 09:20 -20.00741 148.66580 40018 ft 411 kts 318°
2026-04-27 09:21 -19.96257 148.62805 40029 ft 410 kts 318°
2026-04-27 09:21 -19.91819 148.59070 40027 ft 409 kts 318°
2026-04-27 09:22 -19.87353 148.55315 40026 ft 409 kts 318°
2026-04-27 09:22 -19.82887 148.51563 40027 ft 409 kts 318°
2026-04-27 09:23 -19.78428 148.47818 40025 ft 408 kts 318°
2026-04-27 09:23 -19.73971 148.44080 40017 ft 408 kts 318°
2026-04-27 09:24 -19.69506 148.40338 40024 ft 409 kts 318°
2026-04-27 09:24 -19.65043 148.36597 40020 ft 408 kts 318°
2026-04-27 09:25 -19.60615 148.32890 40018 ft 408 kts 318°
2026-04-27 09:25 -19.56164 148.29166 40016 ft 407 kts 318°
2026-04-27 09:26 -19.51715 148.25446 40016 ft 407 kts 318°
2026-04-27 09:26 -19.47296 148.21706 40009 ft 406 kts 316°
2026-04-27 09:27 -19.42873 148.17964 40012 ft 409 kts 317°
2026-04-27 09:27 -19.38363 148.14229 40027 ft 413 kts 318°
2026-04-27 09:28 -19.33828 148.10475 40019 ft 414 kts 318°
2026-04-27 09:28 -19.29403 148.06820 39996 ft 396 kts 317°
2026-04-27 09:29 -19.25097 148.03253 40007 ft 392 kts 317°
2026-04-27 09:29 -19.20804 147.99687 40016 ft 392 kts 317°
2026-04-27 09:30 -19.16508 147.96101 40012 ft 393 kts 317°
2026-04-27 09:30 -19.12207 147.92521 40013 ft 394 kts 317°
2026-04-27 09:31 -19.07888 147.88934 40015 ft 396 kts 317°
2026-04-27 09:31 -19.03544 147.85323 40014 ft 398 kts 317°
2026-04-27 09:32 -18.99171 147.81697 39998 ft 400 kts 317°
2026-04-27 09:32 -18.94796 147.78081 40009 ft 398 kts 317°
2026-04-27 09:33 -18.90504 147.74462 39995 ft 395 kts 315°
2026-04-27 09:33 -18.86237 147.70815 40008 ft 394 kts 316°
2026-04-27 09:34 -18.81887 147.67312 40012 ft 393 kts 318°
2026-04-27 09:34 -18.77547 147.63826 39999 ft 391 kts 318°
2026-04-27 09:35 -18.73257 147.60307 40011 ft 390 kts 317°
2026-04-27 09:35 -18.68987 147.56778 40010 ft 390 kts 317°
2026-04-27 09:36 -18.64722 147.53252 40011 ft 389 kts 317°
2026-04-27 09:36 -18.60563 147.49825 39987 ft 363 kts 316°
2026-04-27 09:36 -18.58612 147.48223 39985 ft 347 kts 316°
2026-04-27 09:37 -18.56770 147.46710 39987 ft 333 kts 316°
2026-04-27 09:37 -18.54960 147.45222 39992 ft 319 kts 315°
2026-04-27 09:37 -18.53226 147.43794 39995 ft 314 kts 315°
2026-04-27 09:38 -18.49784 147.40951 40018 ft 319 kts 315°
2026-04-27 09:38 -18.46277 147.38054 40017 ft 322 kts 316°
2026-04-27 09:39 -18.42703 147.35113 40015 ft 325 kts 315°
2026-04-27 09:39 -18.39126 147.32176 40013 ft 327 kts 316°
2026-04-27 09:40 -18.35562 147.29251 40006 ft 327 kts 316°
2026-04-27 09:40 -18.31977 147.26314 40008 ft 326 kts 315°
2026-04-27 09:41 -18.28408 147.23384 40005 ft 324 kts 315°
2026-04-27 09:41 -18.24853 147.20472 40003 ft 323 kts 315°
2026-04-27 09:42 -18.21313 147.17573 40003 ft 322 kts 315°
2026-04-27 09:42 -18.17782 147.14684 40006 ft 321 kts 315°
2026-04-27 09:43 -18.14253 147.11796 40008 ft 321 kts 316°
2026-04-27 09:43 -18.10719 147.08906 40004 ft 322 kts 315°
2026-04-27 09:44 -18.07170 147.06012 40007 ft 323 kts 316°
2026-04-27 09:44 -18.03610 147.03109 40007 ft 325 kts 316°
2026-04-27 09:45 -18.00035 147.00191 40006 ft 326 kts 316°
2026-04-27 09:45 -17.96451 146.97267 40005 ft 326 kts 316°
2026-04-27 09:46 -17.92880 146.94341 39991 ft 325 kts 315°
2026-04-27 09:46 -17.89307 146.91426 40002 ft 325 kts 315°
2026-04-27 09:47 -17.85732 146.88519 40006 ft 325 kts 316°
2026-04-27 09:47 -17.82160 146.85619 40003 ft 325 kts 316°
2026-04-27 09:48 -17.78591 146.82715 39995 ft 325 kts 316°
2026-04-27 09:48 -17.75020 146.79812 40004 ft 325 kts 316°
2026-04-27 09:49 -17.71437 146.76896 39870 ft 330 kts 316°
2026-04-27 09:49 -17.69620 146.75419 39600 ft 328 kts 315°
2026-04-27 09:49 -17.67812 146.73952 39183 ft 328 kts 316°
2026-04-27 09:49 -17.66038 146.72506 38760 ft 326 kts 314°
2026-04-27 09:50 -17.64257 146.70988 38267 ft 326 kts 316°
2026-04-27 09:50 -17.62486 146.69556 37786 ft 326 kts 316°
2026-04-27 09:50 -17.60685 146.68116 37307 ft 325 kts 316°
2026-04-27 09:50 -17.58890 146.66681 36857 ft 325 kts 316°
2026-04-27 09:51 -17.57095 146.65240 36396 ft 325 kts 316°
2026-04-27 09:51 -17.55303 146.63795 35931 ft 326 kts 316°
2026-04-27 09:51 -17.53500 146.62337 35427 ft 328 kts 316°
2026-04-27 09:51 -17.51687 146.60870 34909 ft 330 kts 316°
2026-04-27 09:52 -17.49861 146.59391 34380 ft 334 kts 317°
2026-04-27 09:52 -17.48007 146.57888 33797 ft 338 kts 317°
2026-04-27 09:52 -17.46134 146.56371 33181 ft 342 kts 317°
2026-04-27 09:52 -17.44245 146.54841 32588 ft 346 kts 317°
2026-04-27 09:53 -17.42330 146.53289 31988 ft 351 kts 318°
2026-04-27 09:53 -17.40374 146.51703 31372 ft 361 kts 319°
2026-04-27 09:53 -17.38334 146.50051 30688 ft 380 kts 319°
2026-04-27 09:53 -17.36216 146.48338 30121 ft 386 kts 319°
2026-04-27 09:54 -17.34090 146.46622 29484 ft 384 kts 320°
2026-04-27 09:54 -17.32009 146.44946 28889 ft 380 kts 320°
2026-04-27 09:54 -17.29925 146.43267 28313 ft 376 kts 320°
2026-04-27 09:54 -17.27863 146.41602 27754 ft 372 kts 320°
2026-04-27 09:55 -17.25826 146.39956 27204 ft 368 kts 320°
2026-04-27 09:55 -17.23813 146.38329 26674 ft 364 kts 320°
2026-04-27 09:55 -17.19833 146.35120 25616 ft 358 kts 319°
2026-04-27 09:56 -17.17867 146.33532 25092 ft 356 kts 320°
2026-04-27 09:56 -17.15909 146.31957 24553 ft 354 kts 319°
2026-04-27 09:56 -17.13964 146.30388 24012 ft 353 kts 319°
2026-04-27 09:56 -17.12024 146.28820 23454 ft 351 kts 319°
2026-04-27 09:57 -17.10094 146.27263 22831 ft 349 kts 319°
2026-04-27 09:57 -17.08181 146.25721 22282 ft 346 kts 320°
2026-04-27 09:57 -17.06282 146.24194 21739 ft 342 kts 319°
2026-04-27 09:57 -17.04402 146.22682 21205 ft 339 kts 319°
2026-04-27 09:58 -17.02542 146.21187 20680 ft 336 kts 319°
2026-04-27 09:58 -17.00690 146.19701 20152 ft 334 kts 319°
2026-04-27 09:58 -16.98852 146.18231 19639 ft 332 kts 319°
2026-04-27 09:58 -16.97030 146.16768 19119 ft 330 kts 319°
2026-04-27 09:59 -16.95216 146.15308 18582 ft 329 kts 319°
2026-04-27 09:59 -16.93407 146.13853 18010 ft 327 kts 319°
2026-04-27 09:59 -16.92215 146.12895 17636 ft 326 kts 319°
2026-04-27 09:59 -16.90428 146.11462 17098 ft 322 kts 319°
2026-04-27 10:00 -16.88068 146.09569 16399 ft 318 kts 318°
2026-04-27 10:00 -16.86910 146.08641 16062 ft 316 kts 319°
2026-04-27 10:00 -16.85173 146.07248 15551 ft 313 kts 318°
2026-04-27 10:00 -16.83455 146.05871 15051 ft 311 kts 319°
2026-04-27 10:01 -16.81743 146.04503 14555 ft 309 kts 319°
2026-04-27 10:01 -16.80044 146.03144 14053 ft 307 kts 317°
2026-04-27 10:01 -16.78356 146.01789 13511 ft 306 kts 318°
2026-04-27 10:01 -16.76674 146.00437 12976 ft 304 kts 318°
2026-04-27 10:02 -16.75004 145.99100 12451 ft 302 kts 317°
2026-04-27 10:02 -16.73347 145.97774 11961 ft 299 kts 318°
2026-04-27 10:02 -16.71700 145.96454 11458 ft 298 kts 319°
2026-04-27 10:02 -16.70059 145.95139 10969 ft 297 kts 321°
2026-04-27 10:03 -16.68562 145.93669 10499 ft 295 kts 311°
2026-04-27 10:03 -16.67218 145.92056 10014 ft 295 kts 310°
2026-04-27 10:03 -16.65866 145.90427 9465 ft 297 kts 311°
2026-04-27 10:03 -16.64493 145.88806 8923 ft 300 kts 311°
2026-04-27 10:04 -16.63188 145.87115 8402 ft 299 kts 298°
2026-04-27 10:04 -16.62450 145.85097 7892 ft 298 kts 285°
2026-04-27 10:04 -16.61844 145.83031 7379 ft 299 kts 284°
2026-04-27 10:04 -16.61241 145.80974 6898 ft 292 kts 286°
2026-04-27 10:05 -16.60646 145.79020 6442 ft 282 kts 285°
2026-04-27 10:05 -16.60056 145.77081 5967 ft 273 kts 283°
2026-04-27 10:05 -16.59777 145.75162 5536 ft 271 kts 268°
2026-04-27 10:05 -16.59874 145.73211 5347 ft 268 kts 260°
2026-04-27 10:06 -16.60143 145.71291 5229 ft 266 kts 256°
2026-04-27 10:06 -16.60463 145.69436 5099 ft 254 kts 255°
2026-04-27 10:06 -16.60827 145.67682 4989 ft 241 kts 249°
2026-04-27 10:06 -16.61313 145.66055 4889 ft 229 kts 246°
2026-04-27 10:07 -16.62047 145.64673 4792 ft 207 kts 212°
2026-04-27 10:07 -16.63299 145.64237 4753 ft 188 kts 169°
2026-04-27 10:07 -16.64538 145.64601 4549 ft 186 kts 161°
2026-04-27 10:07 -16.65776 145.64968 4320 ft 184 kts 159°
2026-04-27 10:08 -16.66961 145.65446 4087 ft 182 kts 156°
2026-04-27 10:08 -16.68112 145.65957 3864 ft 177 kts 154°
2026-04-27 10:08 -16.69217 145.66458 3628 ft 171 kts 154°
2026-04-27 10:08 -16.70296 145.66948 3406 ft 165 kts 155°
2026-04-27 10:09 -16.71314 145.67411 3194 ft 155 kts 155°
2026-04-27 10:09 -16.72275 145.67850 3003 ft 146 kts 155°
2026-04-27 10:09 -16.73209 145.68276 2827 ft 148 kts 155°
2026-04-27 10:09 -16.74159 145.68688 2625 ft 147 kts 158°
2026-04-27 10:10 -16.75070 145.69095 2435 ft 139 kts 156°
2026-04-27 10:10 -16.75923 145.69497 2251 ft 131 kts 156°
2026-04-27 10:10 -16.76758 145.69884 2102 ft 134 kts 155°
2026-04-27 10:10 -16.77631 145.70287 1917 ft 139 kts 156°
2026-04-27 10:11 -16.78518 145.70689 1718 ft 137 kts 156°
2026-04-27 10:11 -16.79343 145.71063 1572 ft 120 kts 154°
2026-04-27 10:11 -16.80083 145.71400 1420 ft 115 kts 156°
2026-04-27 10:11 -16.80812 145.71732 1250 ft 109 kts 156°
2026-04-27 10:12 -16.81480 145.72036 1101 ft 101 kts 157°
2026-04-27 10:12 -16.82125 145.72329 981 ft 104 kts 155°
2026-04-27 10:12 -16.82790 145.72632 844 ft 106 kts 153°
2026-04-27 10:12 -16.83447 145.72931 720 ft 106 kts 158°
2026-04-27 10:13 -16.84137 145.73240 545 ft 104 kts 159°
2026-04-27 10:13 -16.84821 145.73528 391 ft 107 kts 154°
2026-04-27 10:13 -16.85488 145.73859 264 ft 107 kts 158°
2026-04-27 10:13 -16.86155 145.74161 112 ft 109 kts 157°
2026-04-27 10:14 -16.86871 145.74487 24 ft 119 kts 155°
2026-04-27 10:14 -16.87587 145.74809 18 ft 98 kts 157°
2026-04-27 10:14 -16.88057 145.75022 16 ft 46 kts 156°
2026-04-27 10:14 -16.88318 145.75142 19 ft 16 kts 156°
2026-04-27 10:15 -16.88354 145.75231 17 ft 10 kts 63°
2026-04-27 10:15 -16.88346 145.75246 16 ft 4 kts 63°
2026-04-27 10:15 -16.88323 145.75293 17 ft 10 kts 54°
2026-04-27 10:15 -16.88248 145.75299 15 ft 14 kts 330°
2026-04-27 10:16 -16.88149 145.75254 15 ft 17 kts 337°
2026-04-27 10:16 -16.88035 145.75201 15 ft 18 kts 334°
2026-04-27 10:16 -16.87923 145.75152 15 ft 17 kts 337°
2026-04-27 10:16 -16.87813 145.75102 17 ft 17 kts 336°
2026-04-27 10:17 -16.87719 145.75059 18 ft 11 kts 338°
2026-04-27 10:17 -16.87655 145.75080 16 ft 10 kts 62°
2026-04-27 10:17 -16.87615 145.75140 16 ft 10 kts 58°
2026-04-27 10:17 -16.87593 145.75191 18 ft 5 kts 66°
2026-04-27 10:18 -16.87587 145.75205 17 ft 0 kts 67°